This is the latest recevied weather packets stored in our database for station/object KD0SBN-3. If no packets are shown the sender has not sent any weather packets the latest 10 day(s).
| Time | Temp. | Humidity | Pressure | Rain* | Wind** | Luminosity | Snow |
|---|---|---|---|---|---|---|---|
| 1777745331 | 9.44° C | 35% | 1031.8 hPa | 0 mm | - | 774 W/m² | - |
| 1777745028 | 9.44° C | 38% | 1031.7 hPa | 0 mm | - | 775 W/m² | - |
| 1777744723 | 9.44° C | 31% | 1031.5 hPa | 0 mm | - | 775 W/m² | - |
| 1777744417 | 9.44° C | 32% | 1031.7 hPa | 0 mm | - | 770 W/m² | - |
| 1777744115 | 8.89° C | 32% | 1031.8 hPa | 0 mm | - | 762 W/m² | - |
| 1777743812 | 7.78° C | 33% | 1031.7 hPa | 0 mm | - | 760 W/m² | - |
| 1777743509 | 7.78° C | 33% | 1031.9 hPa | 0 mm | - | 761 W/m² | - |
| 1777743206 | 8.89° C | 32% | 1031.8 hPa | 0 mm | - | 763 W/m² | - |
| 1777742904 | 8.89° C | 34% | 1031.8 hPa | 0 mm | - | 769 W/m² | - |
| 1777742601 | 9.44° C | 37% | 1031.7 hPa | 0 mm | - | 738 W/m² | - |
| 1777742296 | 9.44° C | 34% | 1031.8 hPa | 0 mm | - | 743 W/m² | - |
| 1777741993 | 9.44° C | 36% | 1031.8 hPa | 0 mm | - | 727 W/m² | - |
| 1777741690 | 7.78° C | 36% | 1031.9 hPa | 0 mm | - | 722 W/m² | - |
| 1777741386 | 7.78° C | 33% | 1031.7 hPa | 0 mm | - | 716 W/m² | - |
| 1777741082 | 9.44° C | 33% | 1031.7 hPa | 0 mm | - | 705 W/m² | - |
| 1777740780 | 8.89° C | 38% | 1031.8 hPa | 0 mm | - | 696 W/m² | - |
| 1777740476 | 8.33° C | 39% | 1031.7 hPa | 0 mm | - | 695 W/m² | - |
| 1777740174 | 6.67° C | 36% | 1031.8 hPa | 0 mm | - | 681 W/m² | - |
| 1777739869 | 7.22° C | 36% | 1031.7 hPa | 0 mm | - | 666 W/m² | - |
| 1777739566 | 8.33° C | 32% | 1031.5 hPa | 0 mm | - | 658 W/m² | - |
| 1777739263 | 7.22° C | 36% | 1031.8 hPa | 0 mm | - | 649 W/m² | - |
| 1777738960 | 7.78° C | 32% | 1031.8 hPa | 1.27 mm | - | 640 W/m² | - |
| 1777738657 | 6.67° C | 36% | 1031.5 hPa | 1.27 mm | - | 627 W/m² | - |
| 1777738353 | 7.78° C | 36% | 1031.4 hPa | 0 mm | - | 621 W/m² | - |
| 1777738052 | 7.22° C | 34% | 1031.7 hPa | 1.78 mm | - | 606 W/m² | - |
* Rain latest hour (hover to see other rain measurements)
** Current wind speed in m/s (hover to see current wind gust speed)